Weather in Hristoforovka

Ukraine / Mykolaiv District     47°16′00″N   32°15′27″E
temp.,
°C
wind,
m/s
gust,
m/s
humid.,
%
clouds,
%
prec.,
mm/h
press.,
hPa
HPBL,
m
13 june, sun
sun1300:00+19wsw3472100 0.0 101192
03:00+19sw3472100 0.0 101179
06:00+18ssw357689 0.0 1009114
09:00+22ssw586677 0.0 1009621
12:00+25ssw774626 0.0 10092259
15:00+25ssw784752 0.0 10081918
18:00+23s68545 0.0 10071175
21:00+19ssw4873100 0.0 1008194
14 june, mon
mon1400:00+16sw2291100 0.4 100845
03:00+16sw1297100 2.1 1007110
06:00+16e2493100 0.3 1007170
09:00+19s467989 1.3 1008568
12:00+17s2790100 0.8 1010363
15:00+17s4883100 0.8 1011558
18:00+18nnw0179100 0.0 101182
21:00+16nne228514 0.0 101220
15 june, tue
tue1500:00+15nne348862 0.0 101255
03:00+16n3489100 0.0 101175
06:00+16ne3788100 0.0 1011121
09:00+23ne586328 0.0 1011535
12:00+27ne784824 0.0 10102358
15:00+26ene91048100 0.1 10082278
18:00+20e4778100 2.8 1009253
21:00+18e41090100 2.9 1008367
16 june, wed
wed1600:00+17nne3690100 1.5 1008162
03:00+16ne3895100 5.1 1008202
06:00+16ne229591 0.5 100888
09:00+19s118470 0.6 1009496
12:00+23ssw2165100 0.1 10091131
15:00+24s215676 1.3 10091282
18:00+20sse3476100 2.9 101073
21:00+18sse3387100 4.5 101171
17 june, thu
thu1700:00+17ne2289100 0.0 101244
03:00+17nne1193100 0.3 101153
06:00+16sse1194100 1.4 101197
09:00+19ne2383100 1.4 1012592
12:00+21ne2374100 2.4 1012766
15:00+21n4679100 5.4 1013596
18:00+22nne3471100 1.8 1013905
21:00+19e118176 2.3 101311